Regional Weather Roundup
Issued by NWS Cleveland, OH

Home | Current Version | Previous Version | Graphics & Text | Print | Product List | Glossary On
Versions: 1 2 3 4 5 6 7 8 9 10 11 12 13 14 15 16 17 18 19 20 21 22 23 24 25 26 27 28 29 30 31 32 33 34 35 36 37 38 39 40 41 42 43 44 45 46 47 48 49 50
000
ASUS41 KCLE 071210
RWRCLE
OHIO REGIONAL WEATHER ROUNDUP
NATIONAL WEATHER SERVICE CLEVELAND, OH
800 AM EDT TUE JUL 07 2015

NOTE: "FAIR" INDICATES FEW OR NO CLOUDS BELOW 12,000 FEET WITH NO
SIGNIFICANT WEATHER AND/OR OBSTRUCTIONS TO VISIBILITY.

OHZ001>008-015>018-024>027-034-035-043-044-071300-
   NORTHWEST OHIO

CITY           SKY/WX    TMP DP  RH WIND       PRES   REMARKS
DEFIANCE       CLOUDY    76  71  85 SW8       29.89R
FINDLAY        SUNNY     75  71  87 S10       29.92S
TOLEDO EXPRESS MOSUNNY   75  71  87 S12       29.88S
TOLEDO EXEC    MOSUNNY   75  69  81 S12       29.90S
LIMA           PTSUNNY   75  71  87 SW12G21   29.94R
$$

OHZ009>014-019>023-028>033-038-089-071300-
   NORTHEAST OHIO

CITY           SKY/WX    TMP DP  RH WIND       PRES   REMARKS
CLE-HOPKINS    PTSUNNY   73  66  78 S10       29.96F
CLE-LAKEFRONT  PTSUNNY   75  66  73 S16G23    29.92F
CUY CO. ARPT   PTSUNNY   73  68  83 SW12      29.95F
LORAIN-ELYRIA  MOSUNNY   73  67  81 SW10      29.95S
ASHTABULA      MOSUNNY   69  66  90 S10       29.98S
AKRON-CANTON   PTSUNNY   71  66  84 S9        30.00S HAZE
WOOSTER        MOSUNNY   69  66  90 SW7       29.99F FOG
MANSFIELD      MOSUNNY   71  68  90 S10       29.98S FOG
YOUNGSTOWN     PTSUNNY   69  65  86 S8        30.01R FOG
$$

OHZ042-051>053-060>062-070>072-077>081-071300-
  SOUTHWEST OHIO

CITY           SKY/WX    TMP DP  RH WIND       PRES   REMARKS
CINC-COVINGTON PTSUNNY   74  71  91 S9        30.00R
CINC-LUNKEN    PTSUNNY   73  71  93 S5        29.99S
HAMILTON       CLOUDY    77  72  84 SW5       29.99S
DAYTON         CLOUDY    76  71  85 SW12      29.99R
WRIGHT-PAT AFB PTSUNNY   74  71  89 S8        29.97S
DAYTON GENERAL PTSUNNY   75  71  87 S8        29.98S
WILMINGTON     CLOUDY    73  69  87 SW9       30.00S
$$

OHZ036-037-039>041-045>050-054>059-063>069-073>076-082>088-071300-
  CENTRAL AND SOUTHEAST OHIO

CITY           SKY/WX    TMP DP  RH WIND       PRES   REMARKS
COLUMBUS       PTSUNNY   72  68  87 S9        29.99S
OSU AIRPORT    PTSUNNY   72  68  87 S9        29.99R
BOLTON FIELD   CLOUDY    70  70 100 S10         N/A  FOG
RICKENBACK AFB PTSUNNY   71  68  89 S10       30.00R
NEWARK         MOSUNNY   72  68  87 S6        30.00S
MARION         MOSUNNY   72  68  87 S12       29.97S FOG
LANCASTER      MOSUNNY   73  68  84 S7        30.01S
ZANESVILLE     NOT AVBL
NEW PHILLY     SUNNY     69  67  93 VRB5      30.02S FOG
$$


USA.gov is the U.S. government's official web portal to all federal, state and local government web resources and services.